Helicity
12 24 40 49 73 108 110 115 129 145 148 122 127 121 110 99 103 98 89 89 87 81 82 73 71 63 49 34 28 4 -0 -0 -10 -3 -11 -3 -7 3 6 27 44 35 12 5
13 31 44 46 69 97 104 106 94 90 96 113 87 95 112 99 97 94 96 96 90 88 90 91 75 68 54 41 35 5 -10 3 -27 -13 -7 6 4 5 8 20 46 53 24 33
22 49 30 35 48 104 124 126 111 113 119 83 75 79 91 87 83 94 98 99 106 114 119 110 89 71 68 54 39 15 -11 -1 -33 -33 -18 -12 -3 1 8 24 38 37 27 33
33 47 60 113 119 94 99 94 116 74 61 70 76 67 74 80 92 97 94 111 128 139 124 101 84 72 66 67 53 23 12 -9 -32 -41 -41 -29 -18 -3 10 22 32 44 50 27
42 54 48 116 99 117 120 125 101 85 80 82 80 53 133 146 115 106 116 135 137 143 122 97 85 69 62 65 65 41 1 -26 -43 -44 -50 -40 -38 -30 -1 12 16 18 30 43
54 49 62 115 155 110 94 107 138 107 96 80 83 78 106 93 102 111 130 125 122 114 103 92 83 70 61 61 72 53 5 -28 -38 -44 -53 -39 -61 -58 -35 -10 5 6 18 16
57 47 37 108 172 125 105 149 139 107 91 81 79 72 68 88 108 107 114 112 100 107 108 102 79 66 63 58 62 54 32 -9 -19 -21 -21 -51 -58 -57 -56 -20 3 15 20 19
75 61 26 143 194 127 120 140 123 103 90 79 72 78 86 97 100 101 98 97 99 102 107 101 80 70 63 60 48 50 49 16 18 -12 -38 -50 -49 -45 -48 -33 -1 17 32 31
62 48 66 160 103 84 104 123 114 98 94 81 96 89 92 104 101 98 89 91 95 102 105 109 97 79 64 53 48 41 43 42 17 -12 -39 -36 -47 -40 -39 -37 -25 -1 16 40
61 36 98 113 109 100 87 79 106 96 93 105 105 102 101 106 102 90 89 90 96 94 105 111 105 92 76 57 51 47 39 43 28 1 -35 -23 -44 -47 -43 -37 -35 -33 -22 -12
40 35 75 107 127 117 101 78 84 87 107 110 116 107 104 102 96 91 84 89 89 93 103 108 105 99 89 73 62 60 53 47 35 13 -18 -33 -45 -56 -54 -50 -58 -47 -49 -49
71 50 71 81 95 102 88 75 85 123 156 131 116 119 108 100 92 81 76 79 82 91 103 108 104 102 98 92 83 83 63 52 50 24 -6 -26 -30 -42 -58 -65 -56 -46 -30 -45
49 79 64 102 105 107 101 95 109 144 152 156 135 125 108 99 86 79 70 73 74 90 101 102 102 107 106 99 106 86 71 57 59 47 13 -19 -27 -24 -24 -44 -50 -34 -18 -14
53 116 110 127 118 112 103 124 140 158 161 150 142 129 112 98 94 70 70 79 82 90 102 104 101 112 110 100 98 89 76 78 61 54 36 -0 -19 -25 -23 -20 -16 -21 -20 -9
83 87 72 85 100 145 141 161 179 179 171 158 140 125 106 97 92 87 91 86 85 91 118 112 110 111 104 93 94 88 91 81 63 55 52 25 2 -17 -18 -20 -25 -19 -20 -12
81 80 106 111 131 158 154 151 154 158 151 150 136 116 104 118 120 101 91 89 82 90 120 119 114 122 112 96 82 93 92 88 69 62 50 35 20 1 -12 -11 -11 -17 -16 -13
114 103 109 111 128 132 115 119 123 135 142 140 119 118 121 133 102 87 81 93 95 93 101 109 115 122 112 96 89 94 91 85 75 60 56 43 26 14 2 -11 -8 -12 -15 -18
45 78 59 104 103 93 105 109 124 130 128 123 125 131 153 120 81 89 91 98 95 89 88 104 116 113 105 92 103 101 103 88 77 71 55 47 36 23 12 -3 -8 -4 -4 -8
119 102 97 90 91 98 100 111 109 125 141 137 152 119 110 91 89 89 100 107 92 79 103 121 143 99 96 161 111 109 110 94 83 74 63 43 45 32 22 11 -2 -7 -5 4
182 167 144 127 98 92 99 91 124 129 119 127 129 124 105 92 101 98 101 85 74 93 131 136 112 104 121 137 116 123 116 99 89 78 68 51 52 36 30 25 12 3 -5 -7
183 169 138 108 87 78 95 121 137 124 117 127 125 108 98 115 134 129 104 82 109 124 126 154 115 108 122 128 113 134 124 113 101 85 68 53 39 38 34 30 21 14 4 -6
159 136 100 90 91 113 108 109 104 133 125 110 100 117 126 119 144 129 107 101 150 157 145 144 135 148 139 118 137 135 121 109 98 82 68 52 41 35 31 27 22 18 12 8
111 92 86 102 121 125 114 100 106 112 116 106 112 120 118 102 115 133 141 152 149 148 142 159 185 155 146 136 146 138 120 110 96 83 68 55 45 37 32 31 25 22 18 15
100 95 110 122 124 132 111 86 85 86 93 92 96 122 109 114 112 118 154 191 184 208 151 192 176 160 138 145 141 131 119 106 96 86 75 62 57 47 41 35 32 28 25 18
100 118 121 114 101 84 77 84 88 87 90 91 98 110 97 88 112 126 167 187 202 191 179 190 181 168 145 140 140 129 117 108 100 86 80 71 63 57 49 42 35 33 25 19
95 92 83 79 69 83 91 96 88 92 96 103 107 109 107 103 117 148 162 171 164 163 164 178 167 160 145 146 141 131 120 111 98 89 78 72 67 59 53 43 35 31 29 25
90 82 86 81 63 75 87 88 96 99 108 112 107 118 116 116 130 144 175 175 162 154 166 165 167 157 148 149 137 135 120 113 103 92 85 76 70 63 56 46 40 34 29 27
Wind_Speed
28 29 28 26 26 24 25 26 31 35 30 25 25 25 29 33 35 40 42 42 43 44 45 48 56 68 76 78 80 82 81 80 79 79 80 79 80 79 77 75 74 70 68 64
25 26 25 23 19 18 17 20 13 12 19 18 20 23 25 32 37 41 44 46 45 46 47 48 50 58 71 75 78 79 79 79 78 78 79 80 80 78 76 74 73 69 65 64
28 24 28 24 11 16 21 20 21 24 23 24 23 25 28 32 35 39 44 45 48 50 50 50 52 52 55 70 75 77 78 78 78 78 78 79 80 77 76 74 73 66 63 62
27 27 34 30 28 22 17 17 14 14 17 21 23 25 26 32 37 40 45 46 50 51 51 52 52 53 52 55 69 76 78 78 77 79 78 78 79 77 76 74 71 67 62 60
26 22 29 16 16 21 22 24 17 18 23 25 27 28 35 40 41 42 46 48 49 50 51 52 54 54 55 53 62 75 78 78 76 77 79 78 77 77 75 73 71 67 63 61
24 29 32 31 25 25 26 25 21 24 25 26 28 31 40 38 40 42 45 48 51 52 52 53 56 55 55 55 58 67 78 78 76 75 76 77 75 74 72 71 70 67 63 58
14 26 24 20 22 26 30 34 23 23 24 26 26 30 33 34 37 41 45 48 51 52 54 55 55 56 56 56 57 56 71 76 76 75 76 76 75 72 71 70 69 68 66 57
14 23 28 22 24 22 29 28 25 22 23 24 24 28 32 33 36 40 44 46 50 52 54 55 56 57 57 57 54 51 60 74 75 75 75 74 73 72 70 70 69 69 69 61
12 21 25 20 26 16 23 24 23 23 24 23 25 28 30 32 36 40 43 44 47 51 53 55 57 57 58 55 53 51 54 69 74 74 73 72 72 72 71 69 70 69 70 68
20 19 7 10 10 16 15 17 21 20 23 23 25 27 29 31 35 39 41 43 45 48 52 56 57 56 56 55 54 51 52 60 70 74 73 72 70 69 69 69 69 68 69 69
5 6 23 6 9 7 10 12 14 16 17 20 24 26 28 31 35 38 40 41 43 46 50 53 55 56 56 56 54 53 50 52 68 73 73 72 69 68 67 66 66 67 67 69
13 14 15 25 6 11 5 5 9 13 17 20 21 25 28 31 34 37 38 39 42 44 46 51 53 55 56 56 55 53 49 50 61 70 72 71 70 69 65 65 64 64 65 66
10 19 14 23 23 12 9 8 10 13 16 19 22 24 26 30 33 35 36 38 41 43 44 48 51 54 56 56 55 52 49 48 50 59 70 71 70 70 70 66 64 65 66 66
6 13 13 11 14 11 11 14 15 15 17 19 20 23 26 29 32 33 34 37 39 41 43 46 49 52 53 54 53 51 50 48 46 50 62 70 69 68 68 68 68 66 66 68
2 0 13 14 7 16 14 15 14 14 15 17 18 21 23 27 30 32 33 35 37 39 40 42 46 49 52 52 52 50 51 49 46 45 55 64 67 67 66 66 66 66 67 68
2 1 4 8 9 10 11 10 10 12 13 15 16 18 21 26 29 30 31 33 36 39 39 40 42 46 49 52 52 49 49 47 46 46 51 62 66 67 66 65 65 66 67 69
7 1 1 2 5 8 7 8 9 10 11 13 15 18 20 24 26 28 29 31 32 34 35 37 40 41 44 48 53 50 48 47 44 44 48 57 64 65 66 65 64 64 65 66
2 8 2 1 2 5 7 8 9 11 11 13 15 17 19 21 24 29 30 31 32 34 33 35 38 41 43 43 49 50 48 47 46 43 43 52 62 63 64 65 64 63 64 64
3 6 7 6 8 8 10 9 9 11 13 13 15 14 16 18 22 25 29 31 33 36 37 34 37 40 44 48 48 48 50 49 48 45 43 44 54 61 63 64 64 63 63 64
4 5 8 10 12 10 12 12 13 13 13 14 15 16 15 16 20 26 28 30 32 34 34 35 37 41 45 45 48 49 49 50 50 47 45 45 51 56 60 62 63 63 63 63
9 9 8 8 10 11 11 12 12 12 12 12 12 13 14 19 19 23 27 30 32 30 30 33 36 41 43 46 45 48 49 50 50 49 45 45 49 54 56 58 60 61 62 62
14 14 12 10 10 12 13 13 12 12 12 11 12 15 18 18 18 20 19 28 30 28 29 32 35 40 42 43 45 46 48 50 50 48 45 44 48 53 55 56 58 60 60 61
17 12 11 11 13 13 13 12 11 11 10 10 11 14 16 20 20 22 25 20 22 24 29 31 34 37 39 42 43 46 47 48 49 48 45 43 45 50 53 55 55 57 59 61
13 13 13 14 13 12 11 10 10 10 10 15 16 16 20 23 22 18 22 22 23 23 28 31 31 34 36 39 41 43 43 45 46 46 43 41 43 47 50 52 53 54 57 58
12 14 13 12 11 11 12 13 14 15 16 18 20 22 19 19 22 23 19 20 22 25 28 29 30 32 35 36 38 39 41 42 44 44 42 41 41 45 49 51 51 53 56 57
11 11 11 10 10 13 14 14 15 17 18 21 23 23 24 24 23 23 21 21 23 25 28 28 29 31 33 34 36 37 39 41 42 42 41 40 40 45 46 49 52 53 54 56
8 10 10 10 11 13 14 15 17 19 20 22 24 26 26 24 23 21 23 24 26 27 28 28 29 30 31 33 34 35 36 38 40 40 38 38 39 44 47 48 49 52 54 55
Wind_Direction
33 41 48 55 53 59 52 50 42 40 35 31 36 39 34 30 28 26 25 23 20 16 14 13 11 5 358 354 351 344 344 342 340 342 337 337 336 337 336 339 339 328 323 320
36 50 50 46 63 65 66 54 58 46 31 52 45 41 34 30 27 25 24 23 20 18 18 18 16 12 5 360 356 350 343 345 339 338 339 340 338 337 337 337 343 332 323 321
22 47 32 30 104 83 60 60 56 41 43 44 40 38 34 29 28 26 23 21 20 21 21 20 19 18 16 6 360 356 346 346 343 337 336 338 341 341 339 339 339 328 324 321
21 33 16 40 64 72 63 59 78 57 49 45 43 38 33 36 32 27 23 21 22 23 22 22 22 22 20 19 8 358 352 346 345 342 337 338 340 341 340 343 335 330 323 323
19 24 17 51 69 59 57 44 72 59 50 50 47 39 48 38 33 29 26 26 25 24 23 23 25 23 22 24 18 2 352 345 339 341 340 340 339 338 343 345 342 335 331 327
21 11 12 31 58 59 53 31 73 56 53 48 45 36 34 32 31 30 29 28 25 24 25 26 25 24 24 24 23 14 356 348 344 339 339 342 338 336 337 344 349 344 334 330
30 9 20 47 62 63 31 29 64 59 51 43 41 37 32 35 34 33 29 27 26 27 27 27 26 25 25 25 24 21 7 353 346 343 342 340 343 343 339 341 347 350 343 329
29 10 11 73 66 42 33 46 54 58 50 41 44 39 38 38 34 31 28 28 28 28 27 27 27 26 26 26 24 24 18 360 352 347 344 344 346 348 345 344 342 348 347 336
57 25 24 116 36 98 53 50 51 48 46 48 45 41 40 37 33 29 28 29 29 28 27 28 27 28 26 26 25 24 23 11 357 352 348 349 346 347 348 347 348 345 349 346
17 19 58 111 133 55 64 58 49 50 42 49 43 42 40 38 33 28 29 29 29 28 27 26 27 28 27 27 27 26 26 21 8 355 348 351 349 348 347 346 344 343 345 346
31 8 12 81 165 141 66 55 45 44 52 49 43 41 41 37 32 29 30 31 30 28 27 26 27 27 28 28 28 28 29 27 13 360 351 348 349 347 348 348 343 343 341 344
12 28 37 19 90 162 149 63 51 55 56 51 47 40 40 35 33 31 31 31 29 29 28 27 27 27 28 28 29 30 30 29 21 8 355 349 349 346 350 347 348 344 341 343
7 4 22 15 28 77 81 69 65 76 65 52 48 43 39 34 33 32 33 31 29 28 29 28 27 27 27 28 29 30 29 30 28 20 2 349 345 346 345 344 348 348 344 343
4 6 6 27 27 38 49 57 66 66 59 53 49 44 38 33 33 32 31 30 29 29 29 28 27 27 27 27 28 29 30 31 30 26 12 356 347 344 345 346 343 342 344 346
241 280 0 11 38 30 52 61 62 57 56 50 50 42 38 32 31 30 31 29 28 28 28 28 27 26 26 26 27 28 29 30 29 28 19 5 354 344 344 343 344 346 347 346
274 342 10 15 32 41 47 58 56 53 54 50 49 42 37 32 31 30 29 27 25 24 25 27 26 26 27 27 26 27 28 29 29 29 23 8 358 350 341 339 341 344 347 347
5 352 259 310 14 27 37 55 60 59 56 55 52 44 38 32 30 27 25 26 26 24 26 26 25 27 26 26 25 26 25 26 28 28 25 14 360 353 348 340 337 340 343 344
292 346 316 72 53 12 37 53 55 59 61 61 51 43 37 35 28 26 26 26 25 23 24 25 26 25 24 24 24 24 25 25 25 26 26 18 3 357 350 343 339 336 338 340
226 356 38 80 67 60 52 56 65 60 55 58 47 46 42 36 31 25 24 23 20 19 22 27 27 24 23 24 22 24 25 24 24 26 25 21 9 358 351 346 340 338 336 337
155 79 72 50 41 47 42 49 53 54 55 54 49 42 36 33 29 25 23 19 19 20 26 27 25 22 22 24 24 25 24 24 24 24 25 22 13 3 354 348 344 339 336 337
134 114 90 61 38 34 45 61 68 64 65 60 53 39 31 25 23 21 17 15 19 26 27 26 23 21 22 22 23 23 23 24 24 24 25 24 16 7 1 354 348 344 340 335
124 119 110 82 66 63 61 71 66 61 63 54 41 25 19 15 13 10 11 13 20 26 26 23 22 21 21 22 23 23 23 23 23 25 27 26 20 10 4 359 352 347 344 340
116 105 93 89 85 76 66 59 65 67 52 38 25 16 10 9 9 6 4 14 20 23 20 19 21 20 21 22 23 22 22 22 23 24 27 28 23 15 8 3 359 353 346 342
96 91 91 86 70 64 64 62 61 42 28 15 12 11 6 3 1 6 11 19 20 23 18 18 19 20 20 21 21 20 21 22 23 24 26 28 25 18 12 7 3 358 352 346
88 92 88 84 74 61 46 35 27 17 14 11 8 8 7 6 2 8 15 17 19 17 14 16 18 18 18 19 19 19 21 22 23 24 27 28 27 21 16 11 8 2 355 349
86 83 78 81 58 35 30 26 17 14 11 6 4 6 5 6 9 12 17 17 16 13 13 16 16 17 17 18 19 20 21 22 22 24 26 27 27 21 18 14 8 5 2 355
36 39 44 36 27 21 16 11 8 4 5 4 2 4 5 7 10 14 13 11 10 10 11 13 14 15 16 17 19 20 21 22 23 24 27 27 26 20 16 15 12 7 4 2